User: anonymous   Login
Location: Hurecourt
(47.9030°N, 6.0653°E)
Time: 10:24:44
(UTC+00:00)
Language:

SKYSAT C1 - Orbit

View from above orbital plane
View from above orbital plane
View from above satellite
View from above satellite

Ground track
Ground track

The orbit data is extracted from the following two-line orbital elements,

1 41601U 16040C   21016.79716213  .00001457  00000-0  40381-4 0  9996
2 41601  97.2071  97.0238 0005030 104.5838 255.5966 15.38555050254507
Epoch (UTC): 16 January 2021 19:07:54
Eccentricity: 0.0005030
inclination: 97.2071°
perigee height: 447 km
apogee height: 454 km
right ascension of ascending node: 97.0238°
argument of perigee: 104.5838°
revolutions per day: 15.38555050
mean anomaly at epoch: 255.5966°
orbit number at epoch: 25450

The dashed part of the orbit path shows where the satellite is in the earth's shadow,  

DLR